DW8492 Weather Reports


Display with metric or nautical units.
time (UTC)temp
F
wind
direction
speed
MPH
gust
MPH
rain 1hr
in
rain 24hr
in
rain mn
in
humidity
%
barometer
mb
20260507033142 45 13 0.0 0.0 0.00 0.55 0.55 77 1012.9
20260507031609 46 13 0.0 0.0 0.00 0.55 0.55 76 1012.8
20260507030033 46 13 0.0 0.0 0.00 0.55 0.55 75 1013.0
20260507024630 46 13 0.0 0.0 0.00 0.55 0.55 74 1012.7
20260507023014 47 14 0.0 0.0 0.00 0.55 0.55 74 1012.6
20260507021546 47 13 0.0 0.0 0.00 0.55 0.55 71 1012.5
20260507020122 47 13 0.0 2.0 0.00 0.55 0.55 70 1012.4
20260507014530 47 13 0.0 0.0 0.00 0.55 0.55 69 1012.2
20260507013101 48 13 0.0 0.0 0.00 0.55 0.55 68 1011.8
20260507011523 49 13 0.0 2.0 0.00 0.55 0.55 65 1011.7
20260507004548 50 12 0.0 6.0 0.00 0.55 0.55 62 1012.2
20260507003009 50 5 1.0 5.0 0.00 0.55 0.55 63 1012.0
20260507001554 51 13 1.0 4.0 0.00 0.55 0.55 64 1011.7
20260507000011 51 21 2.0 4.0 0.00 0.55 0.55 62 1011.8
20260506234544 51 360 2.0 6.0 0.00 0.55 0.55 60 1011.8
20260506233012 52 355 2.0 9.0 0.00 0.55 0.55 60 1011.5
20260506231550 52 9 2.0 6.0 0.00 0.55 0.55 61 1011.3
20260506230019 52 26 4.0 8.0 0.00 0.55 0.55 62 1011.2
20260506224608 53 190 1.0 4.0 0.00 0.55 0.55 62 1010.8
20260506223036 53 14 4.0 7.0 0.00 0.55 0.55 62 1010.7
20260506221559 54 351 1.0 7.0 0.00 0.55 0.55 63 1010.6
20260506220023 54 323 1.0 6.0 0.00 0.55 0.55 65 1010.3
20260506214604 54 114 1.0 5.0 0.00 0.55 0.55 68 1010.2
20260506213034 54 5 2.0 6.0 0.00 0.55 0.55 68 1009.9
20260506211616 54 5 3.0 8.0 0.00 0.55 0.55 67 1009.8
20260506210015 54 360 3.0 6.0 0.00 0.55 0.55 68 1009.8
20260506204550 54 350 2.0 7.0 0.00 0.55 0.55 72 1009.2
20260506203010 53 355 2.0 6.0 0.00 0.55 0.55 71 1009.3
20260506201542 54 16 3.0 8.0 0.00 0.55 0.55 73 1009.4
20260506200110 53 348 1.0 5.0 0.00 0.55 0.55 76 1009.4
20260506193024 52 355 0.0 5.0 0.00 0.55 0.55 78 1009.5
20260506191548 52 348 3.0 7.0 0.00 0.55 0.55 79 1009.4
20260506190018 52 9 3.0 9.0 0.00 0.55 0.55 80 1009.4
20260506184553 52 355 2.0 9.0 0.00 0.55 0.55 83 1009.3
20260506183112 52 17 2.0 9.0 0.00 0.55 0.55 83 1009.3
20260506181537 53 360 0.0 7.0 0.00 0.55 0.55 83 1009.1
20260506180005 52 140 2.0 7.0 0.00 0.55 0.55 84 1009.1
20260506174544 53 31 4.0 9.0 0.00 0.55 0.55 82 1008.9
20260506173002 53 355 4.0 11.0 0.00 0.55 0.55 83 1008.9
20260506171540 52 11 2.0 5.0 0.00 0.55 0.55 87 1008.7
20260506170011 51 348 3.0 6.0 0.00 0.55 0.55 89 1008.8
20260506164544 51 13 1.0 8.0 0.00 0.55 0.55 92 1008.7
20260506163124 50 40 3.0 7.0 0.00 0.55 0.55 93 1008.6
20260506161527 49 224 3.0 8.0 0.00 0.55 0.55 93 1008.4
20260506160107 50 355 3.0 8.0 0.00 0.55 0.55 95 1008.3
20260506154537 50 5 3.0 8.0 0.00 0.55 0.55 96 1008.1
20260506153018 49 22 2.0 10.0 0.00 0.55 0.55 96 1007.9
20260506151603 49 5 3.0 6.0 0.00 0.55 0.55 96 1007.7
20260506150027 49 355 0.0 6.0 0.00 0.55 0.55 96 1007.4
20260506144559 49 31 0.0 5.0 0.00 0.55 0.55 97 1007.2
20260506143019 48 334 1.0 7.0 0.01 0.55 0.55 96 1007.0
20260506141553 48 5 0.0 4.0 0.01 0.55 0.55 96 1006.6
20260506140022 47 22 4.0 9.0 0.02 0.55 0.55 96 1006.5
20260506134557 47 5 3.0 8.0 0.02 0.55 0.55 96 1006.5
20260506133022 47 28 1.0 7.0 0.02 0.54 0.54 96 1006.5
20260506131601 47 348 1.0 7.0 0.01 0.53 0.53 96 1006.5
20260506130019 47 63 0.0 6.0 0.02 0.53 0.53 96 1006.2
20260506124559 48 355 3.0 6.0 0.02 0.53 0.53 96 1005.6
20260506123026 48 360 0.0 4.0 0.01 0.52 0.52 96 1004.6
20260506121558 49 324 1.0 4.0 0.01 0.51 0.51 96 1005.5
20260506120045 49 13 2.0 5.0 0.01 0.51 0.51 96 1005.3
20260506114504 49 302 2.0 8.0 0.03 0.51 0.51 96 1005.4
20260506113031 50 5 0.0 7.0 0.07 0.51 0.51 95 1004.5
20260506111600 50 18 4.0 10.0 0.11 0.50 0.50 95 1004.3
20260506110110 52 360 2.0 8.0 0.15 0.50 0.50 95 1004.2
20260506104535 55 14 2.0 4.0 0.14 0.48 0.48 96 1003.9
20260506103004 55 188 1.0 5.0 0.12 0.44 0.44 96 1003.8
20260506101503 56 262 1.0 5.0 0.10 0.39 0.39 96 1003.8
20260506100046 55 225 0.0 3.0 0.08 0.35 0.35 96 1003.8
20260506094616 56 258 0.0 4.0 0.10 0.34 0.34 95 1003.7
20260506093008 56 256 1.0 4.0 0.12 0.32 0.32 95 1003.7
20260506091546 56 237 0.0 6.0 0.13 0.28 0.28 95 1003.9
20260506090004 56 163 0.0 3.0 0.13 0.27 0.27 95 1004.1
20260506084540 56 167 0.0 2.0 0.09 0.23 0.23 95 1004.5
20260506083022 56 167 0.0 0.0 0.05 0.19 0.19 94 1004.5
20260506081556 56 167 0.0 2.0 0.02 0.16 0.16 94 1004.4
20260506073006 56 230 0.0 0.0 0.02 0.14 0.14 94 1004.2
20260506071544 56 230 0.0 0.0 0.03 0.14 0.14 94 1004.2
20260506061532 57 160 0.0 3.0 0.06 0.11 0.11 93 1005.1
20260506050110 58 151 0.0 0.0 0.03 0.03 0.03 90 1006.4
20260506044542 59 151 0.0 1.0 0.01 0.01 0.01 89 1006.7
20260506043104 59 128 0.0 3.0 0.00 0.00 0.00 88 1006.5
20260506041525 59 69 0.0 2.0 0.00 0.00 0.00 87 1006.3
20260506040110 59 37 0.0 5.0 0.00 0.00 0.00 86 1006.5
20260506034509 59 302 0.0 3.0 0.00 0.00 0.00 85 1006.1